When you browse on this site, cookies collect data to enhance your experience and personalize the content and advertising you see.
Visit our Privacy Policy to learn more. By continuing to use the site, you agree to this use of cookies and data.
  • In Österreich
  • Länderverzeichnis
  • Für 7 Tage
  • Wassertemperatur
  • Wetterkarte
  • News
  • Widgets
  • user-avatar
    Anmelden

    Stündliche Wetter Perth

    Heute, 28 Januar, Dienstag

    Zeit Temperatur Niederschläge Wind Luftdruck Luftfeuchtigkeit
    00:00 +28°C° 0 mm 3 m/S 755 mmHg 39%
    01:00 +27°C° 0 mm 3 m/S 755 mmHg 43%
    02:00 +27°C° 0 mm 3 m/S 755 mmHg 44%
    03:00 +26°C° 0 mm 2 m/S 755 mmHg 47%
    04:00 +26°C° 0 mm 2 m/S 755 mmHg 51%
    05:00 +25°C° 0 mm 1 m/S 755 mmHg 55%
    06:00 +27°C° 0 mm 1 m/S 755 mmHg 51%
    07:00 +29°C° 0 mm 1 m/S 755 mmHg 46%
    08:00 +31°C° 0 mm 1 m/S 755 mmHg 41%
    09:00 +34°C° 0 mm 2 m/S 755 mmHg 37%
    10:00 +36°C° 0 mm 2 m/S 755 mmHg 33%
    11:00 +38°C° 0 mm 3 m/S 754 mmHg 28%
    12:00 +37°C° 0 mm 4 m/S 754 mmHg 30%
    13:00 +37°C° 0 mm 5 m/S 753 mmHg 31%
    14:00 +37°C° 0 mm 5 m/S 753 mmHg 32%
    15:00 +35°C° 0 mm 6 m/S 753 mmHg 35%
    16:00 +34°C° 0 mm 6 m/S 753 mmHg 38%
    17:00 +33°C° 0 mm 6 m/S 752 mmHg 41%
    18:00 +29°C° 0 mm 6 m/S 753 mmHg 49%
    19:00 +27°C° 0 mm 5 m/S 754 mmHg 56%
    20:00 +25°C° 0 mm 5 m/S 754 mmHg 64%
    21:00 +23°C° 0 mm 5 m/S 754 mmHg 68%
    22:00 +22°C° 0 mm 5 m/S 755 mmHg 72%
    23:00 +22°C° 0 mm 5 m/S 755 mmHg 76%

    Morgen, 29 Januar, Mittwoch

    Zeit Temperatur Niederschläge Wind Luftdruck Luftfeuchtigkeit
    00:00 +21°C° 0 mm 4 m/S 755 mmHg 78%
    01:00 +20°C° 0 mm 4 m/S 755 mmHg 81%
    02:00 +20°C° 0 mm 3 m/S 755 mmHg 83%
    03:00 +20°C° 0 mm 3 m/S 755 mmHg 83%
    04:00 +19°C° 0 mm 3 m/S 755 mmHg 83%
    05:00 +19°C° 0 mm 2 m/S 755 mmHg 82%
    06:00 +20°C° 0 mm 2 m/S 755 mmHg 75%
    07:00 +23°C° 0 mm 2 m/S 755 mmHg 68%
    08:00 +24°C° 0 mm 3 m/S 755 mmHg 61%
    09:00 +26°C° 0 mm 3 m/S 755 mmHg 54%
    10:00 +28°C° 0 mm 3 m/S 755 mmHg 47%
    11:00 +30°C° 0 mm 3 m/S 755 mmHg 40%
    12:00 +30°C° 0 mm 4 m/S 754 mmHg 40%
    13:00 +32°C° 0 mm 4 m/S 753 mmHg 40%
    14:00 +32°C° 0 mm 5 m/S 752 mmHg 40%
    15:00 +30°C° 0 mm 5 m/S 752 mmHg 44%
    16:00 +29°C° 0 mm 5 m/S 752 mmHg 48%
    17:00 +27°C° 0 mm 5 m/S 751 mmHg 52%
    18:00 +26°C° 0 mm 5 m/S 752 mmHg 61%
    19:00 +23°C° 0 mm 4 m/S 752 mmHg 70%
    20:00 +21°C° 0 mm 4 m/S 752 mmHg 79%
    21:00 +21°C° 0 mm 4 m/S 753 mmHg 81%
    22:00 +21°C° 0 mm 3 m/S 753 mmHg 82%
    23:00 +21°C° 0 mm 3 m/S 753 mmHg 84%

    übermorgen, 30 Januar, Donnerstag

    Zeit Temperatur Niederschläge Wind Luftdruck Luftfeuchtigkeit
    00:00 +21°C° 0 mm 3 m/S 753 mmHg 83%
    01:00 +21°C° 0 mm 3 m/S 752 mmHg 82%
    02:00 +21°C° 0 mm 2 m/S 752 mmHg 81%
    03:00 +21°C° 0.1 mm 3 m/S 752 mmHg 82%
    04:00 +21°C° 0.1 mm 3 m/S 752 mmHg 84%
    05:00 +21°C° 0.1 mm 3 m/S 752 mmHg 86%
    06:00 +21°C° 0.1 mm 4 m/S 752 mmHg 83%
    07:00 +21°C° 0.1 mm 4 m/S 753 mmHg 81%
    08:00 +21°C° 0.1 mm 5 m/S 753 mmHg 78%
    09:00 +21°C° 0.1 mm 5 m/S 753 mmHg 75%
    10:00 +22°C° 0.1 mm 6 m/S 753 mmHg 72%
    11:00 +22°C° 0.1 mm 6 m/S 753 mmHg 69%
    12:00 +23°C° 0.1 mm 7 m/S 753 mmHg 62%
    13:00 +23°C° 0.1 mm 7 m/S 753 mmHg 56%
    14:00 +24°C° 0.1 mm 7 m/S 753 mmHg 49%
    15:00 +24°C° 0 mm 7 m/S 753 mmHg 50%
    16:00 +24°C° 0 mm 7 m/S 754 mmHg 50%
    17:00 +23°C° 0 mm 7 m/S 754 mmHg 50%
    18:00 +22°C° 0 mm 7 m/S 754 mmHg 54%
    19:00 +21°C° 0 mm 6 m/S 755 mmHg 58%
    20:00 +19°C° 0 mm 6 m/S 755 mmHg 61%
    21:00 +19°C° 0 mm 5 m/S 756 mmHg 62%
    22:00 +17°C° 0 mm 5 m/S 756 mmHg 62%
    23:00 +17°C° 0 mm 5 m/S 757 mmHg 62%

    31 Januar, Freitag

    Zeit Temperatur Niederschläge Wind Luftdruck Luftfeuchtigkeit
    00:00 +17°C° 0 mm 4 m/S 756 mmHg 64%
    01:00 +15°C° 0 mm 4 m/S 756 mmHg 67%
    02:00 +14°C° 0 mm 3 m/S 756 mmHg 70%
    03:00 +13°C° 0 mm 3 m/S 757 mmHg 72%
    04:00 +13°C° 0 mm 3 m/S 757 mmHg 74%
    05:00 +13°C° 0 mm 2 m/S 758 mmHg 76%
    06:00 +13°C° 0 mm 3 m/S 758 mmHg 69%
    07:00 +16°C° 0 mm 3 m/S 758 mmHg 63%
    08:00 +17°C° 0 mm 3 m/S 759 mmHg 56%
    09:00 +19°C° 0 mm 3 m/S 759 mmHg 48%
    10:00 +21°C° 0 mm 3 m/S 759 mmHg 40%
    11:00 +24°C° 0 mm 3 m/S 759 mmHg 32%
    12:00 +25°C° 0 mm 4 m/S 758 mmHg 32%
    13:00 +26°C° 0 mm 5 m/S 758 mmHg 33%
    14:00 +26°C° 0 mm 6 m/S 757 mmHg 33%
    15:00 +26°C° 0 mm 6 m/S 757 mmHg 37%
    16:00 +24°C° 0 mm 7 m/S 757 mmHg 42%
    17:00 +23°C° 0 mm 7 m/S 757 mmHg 46%
    18:00 +22°C° 0 mm 7 m/S 758 mmHg 49%
    19:00 +21°C° 0 mm 6 m/S 758 mmHg 52%
    20:00 +20°C° 0 mm 6 m/S 759 mmHg 55%
    21:00 +19°C° 0 mm 5 m/S 759 mmHg 55%
    22:00 +17°C° 0 mm 5 m/S 760 mmHg 54%
    23:00 +18°C° 0 mm 4 m/S 760 mmHg 53%

    1 Februar, Samstag

    Zeit Temperatur Niederschläge Wind Luftdruck Luftfeuchtigkeit
    00:00 +16°C° 0 mm 5 m/S 760 mmHg 54%
    01:00 +16°C° 0 mm 6 m/S 760 mmHg 54%
    02:00 +16°C° 0 mm 6 m/S 760 mmHg 55%
    03:00 +15°C° 0 mm 6 m/S 761 mmHg 56%
    04:00 +15°C° 0 mm 6 m/S 761 mmHg 58%
    05:00 +14°C° 0 mm 6 m/S 761 mmHg 60%
    06:00 +15°C° 0 mm 6 m/S 762 mmHg 57%
    07:00 +16°C° 0 mm 6 m/S 762 mmHg 54%
    08:00 +17°C° 0 mm 6 m/S 763 mmHg 51%
    09:00 +21°C° 0 mm 5 m/S 762 mmHg 44%
    10:00 +25°C° 0 mm 5 m/S 762 mmHg 37%
    11:00 +27°C° 0 mm 4 m/S 762 mmHg 30%
    12:00 +28°C° 0 mm 4 m/S 761 mmHg 28%
    13:00 +29°C° 0 mm 4 m/S 761 mmHg 27%
    14:00 +30°C° 0 mm 4 m/S 760 mmHg 26%
    15:00 +30°C° 0 mm 5 m/S 760 mmHg 28%
    16:00 +29°C° 0 mm 5 m/S 759 mmHg 31%
    17:00 +29°C° 0 mm 6 m/S 759 mmHg 33%
    18:00 +27°C° 0 mm 5 m/S 759 mmHg 40%
    19:00 +25°C° 0 mm 5 m/S 760 mmHg 46%
    20:00 +22°C° 0 mm 4 m/S 760 mmHg 53%
    21:00 +22°C° 0 mm 4 m/S 760 mmHg 48%
    22:00 +22°C° 0 mm 4 m/S 761 mmHg 43%
    23:00 +22°C° 0 mm 4 m/S 761 mmHg 39%

    2 Februar, Sonntag

    Zeit Temperatur Niederschläge Wind Luftdruck Luftfeuchtigkeit
    00:00 +21°C° 0 mm 6 m/S 761 mmHg 44%
    01:00 +20°C° 0 mm 7 m/S 761 mmHg 49%
    02:00 +18°C° 0 mm 8 m/S 761 mmHg 54%
    03:00 +18°C° 0 mm 8 m/S 761 mmHg 56%
    04:00 +17°C° 0 mm 8 m/S 761 mmHg 59%
    05:00 +16°C° 0 mm 8 m/S 762 mmHg 61%
    06:00 +17°C° 0 mm 8 m/S 762 mmHg 58%
    07:00 +18°C° 0 mm 8 m/S 762 mmHg 55%
    08:00 +20°C° 0 mm 8 m/S 763 mmHg 51%
    09:00 +23°C° 0 mm 7 m/S 762 mmHg 45%
    10:00 +27°C° 0 mm 6 m/S 762 mmHg 38%
    11:00 +30°C° 0 mm 5 m/S 762 mmHg 32%
    12:00 +32°C° 0 mm 5 m/S 761 mmHg 29%
    13:00 +34°C° 0 mm 4 m/S 760 mmHg 26%
    14:00 +36°C° 0 mm 4 m/S 759 mmHg 23%
    15:00 +35°C° 0 mm 4 m/S 759 mmHg 24%
    16:00 +35°C° 0 mm 4 m/S 758 mmHg 25%
    17:00 +35°C° 0 mm 5 m/S 758 mmHg 26%
    18:00 +33°C° 0 mm 4 m/S 758 mmHg 30%
    19:00 +30°C° 0 mm 4 m/S 759 mmHg 33%
    20:00 +28°C° 0 mm 4 m/S 759 mmHg 37%
    21:00 +27°C° 0 mm 5 m/S 759 mmHg 35%
    22:00 +27°C° 0 mm 7 m/S 760 mmHg 33%
    23:00 +27°C° 0 mm 8 m/S 760 mmHg 31%
    Mehr zeigen